Temp
10 11 11 10 11 11 11 11 11 11 11 10 10 10 10 10 9 9 9 9 10 10 9 9 9 9 9 9 9 9 9 9 9 9 9 9 9 9 9 9 9 9 8
10 11 11 10 10 10 10 11 10 10 10 10 10 10 9 9 9 9 9 8 10 9 9 9 9 9 9 9 9 9 9 9 9 9 9 9 9 9 9 9 9 9 9
9 9 10 10 9 10 10 10 10 10 10 10 10 9 9 9 9 9 8 7 9 9 9 9 9 9 9 9 9 9 9 9 9 9 10 9 9 9 9 9 9 8 8
9 8 9 10 10 9 9 10 10 10 10 9 9 9 9 9 9 9 8 9 9 9 9 9 9 9 9 9 9 9 9 9 9 10 10 10 9 9 8 9 8 8 9
8 8 9 9 9 9 9 9 9 9 9 9 9 9 9 9 9 9 9 9 9 9 9 9 9 9 9 9 9 10 10 10 10 10 10 10 9 9 9 9 9 9 9
9 8 8 8 9 9 8 9 9 9 9 9 8 9 9 9 9 9 9 9 9 9 9 9 9 9 9 9 10 10 10 10 10 10 10 10 10 10 9 9 9 9 9
8 7 8 8 8 8 8 8 8 8 9 9 9 9 9 9 9 9 9 9 9 9 9 9 9 9 9 9 10 10 10 10 10 10 10 10 10 10 10 9 9 9 9
7 7 6 8 8 8 8 7 7 7 7 8 8 8 9 9 9 9 9 9 9 9 9 9 9 9 9 9 10 10 10 10 10 10 10 10 10 9 9 9 9 9 9
6 7 6 7 7 7 7 7 7 7 7 8 8 8 9 9 9 9 9 9 9 9 9 9 9 9 9 9 9 9 9 9 10 10 10 9 9 9 9 9 9 9 9
6 6 6 6 7 7 6 6 6 6 6 7 8 8 8 8 9 9 9 9 9 9 9 9 9 9 9 9 9 9 9 9 10 9 9 9 9 9 9 9 9 9 9
5 5 6 6 6 6 6 6 6 5 6 7 7 8 7 8 8 9 9 9 9 9 9 9 9 9 9 9 9 9 9 10 9 9 9 9 9 9 9 9 9 9 9
4 4 5 5 5 5 5 5 6 6 6 6 7 7 7 8 8 8 8 9 8 9 9 9 9 9 9 9 9 9 9 9 9 9 9 9 9 9 9 9 9 9 8
3 2 4 4 5 5 4 5 5 6 6 5 6 6 7 8 8 8 8 8 9 9 9 9 9 9 9 9 9 9 9 9 9 9 9 9 9 9 8 8 8 8 8
2 2 2 3 4 5 4 4 4 5 5 5 6 6 7 8 7 8 8 8 8 9 9 9 9 9 9 9 9 9 9 9 9 9 8 8 8 8 8 8 8 8 8
2 1 2 2 3 4 3 4 4 4 4 5 5 6 6 7 7 7 7 7 8 8 8 8 8 8 8 8 8 8 8 8 9 8 8 8 8 8 8 7 7 7 7
2 1 2 2 1 0 4 4 2 4 4 6 6 6 6 7 6 7 7 7 8 8 8 8 8 8 8 8 8 8 8 8 8 8 8 7 7 7 7 7 7 7 7
1 1 1 1 2 1 -0 2 2 2 4 5 5 5 6 6 6 6 6 7 7 7 8 8 8 8 8 8 8 8 8 8 7 7 7 7 7 7 7 7 7 7 7
0 -0 0 1 1 0 -0 2 2 2 4 5 5 5 5 6 6 6 6 6 7 7 7 8 8 8 8 8 7 8 7 7 7 7 7 7 7 7 7 7 6 6 6
-0 -1 0 0 1 1 0 -0 1 3 3 5 4 5 5 5 5 5 6 6 6 7 7 7 7 7 7 7 7 7 7 7 7 7 7 7 7 6 6 6 6 6 6
-1 -1 0 0 0 1 1 -1 -1 2 3 4 4 4 5 5 5 5 6 6 6 6 7 7 7 7 7 6 7 7 6 6 6 6 6 6 6 6 6 6 6 6 5
-1 -1 -0 -1 -1 3 1 -1 0 0 2 4 3 4 4 4 5 5 5 6 6 6 6 6 6 6 6 7 7 6 6 6 6 6 6 5 5 5 5 5 5 5 5
-1 -1 -0 -1 -0 1 1 -0 1 1 1 2 3 3 4 4 5 5 5 5 5 5 6 6 6 6 6 6 6 6 6 6 5 5 5 5 5 4 4 4 4 4 4
-1 -1 -1 -2 -0 -0 1 0 0 1 -0 1 1 3 3 4 4 5 5 5 5 5 5 6 5 5 5 5 5 5 5 5 5 5 4 4 4 4 4 3 2 3 2
-1 -2 -1 -1 -0 0 0 -0 0 0 0 2 1 1 3 3 4 4 4 5 5 5 5 4 4 4 5 4 4 4 4 4 4 4 4 4 3 3 3 3 3 2 1
-1 -2 -1 -1 -1 -1 -1 -0 0 -0 2 1 1 -1 1 2 3 3 4 4 4 4 4 4 4 4 4 4 4 4 4 4 4 4 3 3 3 3 3 2 2 2 1
-1 -1 -1 -1 -1 -1 -1 -1 -0 -0 1 -0 0 -0 0 2 2 3 3 4 4 4 4 4 4 4 3 3 3 3 3 3 3 3 3 2 2 1 1 1 0 0 -1
Height
3120 3120 3121 3122 3123 3125 3127 3127 3128 3128 3129 3131 3133 3135 3136 3137 3139 3140 3141 3142 3143 3145 3146 3148 3149 3149 3150 3150 3151 3152 3153 3154 3155 3155 3156 3157 3158 3158 3159 3160 3160 3159 3160
3118 3118 3120 3121 3122 3123 3125 3127 3127 3128 3129 3130 3132 3134 3136 3137 3138 3140 3141 3141 3143 3145 3146 3147 3148 3149 3150 3150 3152 3152 3154 3155 3156 3156 3157 3158 3159 3159 3159 3160 3160 3160 3160
3116 3116 3117 3118 3120 3122 3124 3126 3127 3128 3129 3130 3131 3133 3135 3136 3137 3139 3140 3142 3144 3145 3146 3147 3148 3149 3149 3151 3152 3153 3155 3155 3156 3157 3158 3158 3158 3159 3160 3160 3160 3161 3161
3114 3114 3115 3116 3118 3120 3122 3124 3125 3127 3128 3129 3130 3132 3134 3135 3136 3139 3140 3142 3144 3145 3146 3147 3148 3149 3150 3151 3152 3153 3155 3155 3156 3157 3158 3159 3160 3161 3161 3162 3162 3162 3163
3112 3112 3112 3114 3115 3118 3120 3122 3124 3126 3127 3128 3129 3130 3132 3134 3136 3138 3140 3142 3144 3145 3146 3147 3148 3149 3150 3151 3152 3154 3155 3156 3157 3158 3160 3161 3162 3162 3163 3163 3163 3164 3164
3107 3109 3110 3112 3112 3114 3118 3120 3121 3123 3126 3127 3128 3128 3130 3133 3135 3138 3140 3142 3143 3145 3146 3147 3149 3150 3151 3152 3154 3155 3156 3157 3158 3158 3160 3161 3162 3162 3163 3164 3164 3165 3165
3103 3105 3105 3108 3109 3110 3113 3117 3119 3121 3123 3125 3126 3127 3129 3132 3135 3138 3140 3142 3143 3144 3145 3146 3148 3150 3152 3153 3155 3156 3157 3157 3158 3159 3159 3160 3162 3163 3164 3165 3165 3165 3165
3099 3099 3100 3102 3106 3107 3110 3114 3116 3119 3120 3122 3124 3125 3127 3130 3134 3137 3139 3141 3142 3143 3145 3146 3148 3150 3152 3154 3155 3157 3157 3157 3158 3159 3160 3161 3162 3163 3164 3165 3166 3166 3166
3091 3093 3095 3096 3101 3103 3106 3110 3113 3115 3118 3119 3121 3124 3125 3128 3131 3135 3137 3139 3141 3142 3144 3145 3147 3149 3151 3153 3155 3157 3157 3158 3159 3159 3161 3162 3163 3164 3165 3165 3166 3166 3167
3084 3086 3089 3091 3095 3097 3101 3105 3108 3112 3114 3116 3118 3121 3124 3126 3128 3132 3135 3137 3139 3141 3143 3145 3147 3149 3151 3153 3155 3157 3158 3158 3159 3160 3161 3162 3163 3164 3164 3165 3165 3166 3167
3076 3078 3081 3085 3088 3092 3096 3100 3103 3107 3109 3111 3114 3118 3120 3122 3125 3128 3132 3135 3137 3140 3142 3144 3146 3148 3150 3152 3154 3156 3157 3158 3159 3160 3161 3161 3163 3163 3164 3165 3166 3166 3167
3070 3070 3073 3079 3083 3087 3088 3095 3097 3100 3104 3107 3110 3114 3116 3119 3122 3124 3129 3132 3134 3137 3141 3143 3145 3147 3148 3150 3153 3155 3156 3158 3158 3160 3160 3161 3162 3163 3164 3165 3165 3166 3166
3063 3064 3066 3072 3076 3075 3076 3086 3090 3094 3099 3102 3105 3110 3112 3115 3118 3122 3125 3128 3131 3134 3138 3141 3144 3146 3148 3149 3151 3153 3155 3156 3158 3160 3161 3161 3162 3162 3163 3164 3165 3165 3165
3055 3057 3060 3064 3068 3071 3066 3078 3084 3088 3094 3097 3100 3106 3108 3111 3115 3118 3122 3125 3128 3132 3134 3139 3142 3144 3146 3147 3149 3152 3154 3156 3157 3158 3160 3160 3161 3162 3163 3164 3164 3165 3165
3046 3049 3053 3055 3058 3045 3065 3071 3079 3083 3088 3093 3095 3101 3105 3108 3112 3115 3119 3122 3125 3128 3132 3136 3140 3142 3144 3146 3148 3150 3152 3154 3155 3157 3158 3159 3159 3160 3162 3163 3163 3163 3163
3038 3041 3041 3046 3045 3039 3043 3053 3065 3076 3083 3087 3090 3096 3100 3104 3108 3112 3116 3119 3122 3125 3129 3133 3137 3140 3143 3144 3146 3149 3151 3153 3154 3156 3157 3158 3159 3160 3161 3161 3162 3161 3161
3030 3033 3034 3031 3029 3028 3037 3043 3054 3066 3074 3078 3087 3092 3096 3099 3103 3108 3111 3116 3119 3123 3125 3130 3133 3137 3140 3143 3145 3147 3149 3152 3154 3155 3156 3157 3158 3159 3159 3160 3161 3161 3160
3025 3027 3028 3026 3026 3029 3030 3032 3044 3058 3067 3072 3080 3086 3090 3094 3099 3104 3107 3112 3116 3120 3123 3127 3131 3135 3138 3141 3143 3145 3147 3150 3152 3154 3155 3156 3157 3158 3159 3159 3159 3160 3160
3020 3022 3023 3022 3022 3024 3027 3034 3040 3042 3054 3060 3072 3081 3086 3091 3096 3100 3105 3109 3113 3117 3120 3124 3128 3131 3135 3138 3141 3143 3144 3147 3149 3150 3152 3153 3155 3156 3156 3156 3156 3156 3157
3016 3017 3017 3014 3011 3012 3020 3038 3038 3040 3046 3047 3059 3073 3081 3087 3092 3097 3101 3105 3109 3113 3117 3121 3125 3128 3132 3135 3138 3140 3142 3144 3146 3147 3148 3149 3150 3151 3152 3153 3154 3154 3154
3012 3015 3015 3014 3011 3019 3028 3033 3039 3039 3044 3041 3051 3066 3075 3081 3088 3093 3097 3101 3105 3110 3114 3118 3122 3125 3128 3131 3135 3137 3140 3141 3143 3144 3145 3146 3146 3147 3149 3150 3150 3150 3150
3012 3012 3012 3008 3014 3017 3025 3031 3034 3032 3037 3042 3048 3062 3070 3076 3083 3089 3094 3097 3101 3105 3109 3113 3118 3122 3125 3128 3131 3134 3136 3139 3140 3141 3142 3144 3144 3144 3145 3144 3145 3146 3146
3007 3004 3011 3013 3014 3022 3026 3026 3028 3029 3037 3041 3046 3056 3066 3072 3079 3085 3089 3093 3097 3101 3105 3110 3114 3119 3123 3125 3128 3130 3132 3133 3136 3138 3139 3140 3140 3141 3141 3141 3140 3142 3142
3009 3007 3005 3008 3011 3014 3019 3022 3025 3035 3036 3039 3045 3053 3062 3069 3075 3080 3084 3088 3093 3097 3101 3106 3110 3114 3118 3121 3123 3127 3128 3130 3131 3134 3135 3136 3137 3137 3137 3136 3136 3136 3135
3008 3004 3003 3006 3011 3016 3020 3021 3026 3032 3031 3037 3043 3047 3059 3065 3070 3075 3078 3083 3088 3092 3097 3102 3106 3110 3114 3117 3119 3121 3124 3125 3127 3128 3129 3131 3131 3130 3130 3131 3129 3129 3128
3008 3005 3005 3008 3011 3013 3014 3015 3021 3024 3027 3032 3037 3042 3049 3059 3065 3071 3075 3080 3084 3089 3093 3097 3101 3105 3109 3112 3114 3115 3117 3119 3121 3122 3122 3124 3124 3125 3125 3124 3124 3122 3120
Wind_Speed
18 18 11 11 11 11 12 11 12 12 11 10 10 11 14 15 14 14 12 11 10 13 12 10 8 7 7 7 7 8 9 9 10 10 10 10 11 11 10 9 9 10 9
15 21 16 14 14 14 13 14 14 14 13 12 11 11 13 15 15 14 12 10 14 13 11 9 8 7 6 7 8 10 11 12 12 13 13 12 11 11 10 9 9 8 8
13 13 14 14 16 17 16 16 16 15 14 13 12 12 14 16 15 14 13 16 14 12 10 8 8 7 7 9 10 11 11 12 12 12 12 12 11 10 9 11 10 12 13
13 11 10 15 16 20 19 19 18 17 16 16 14 13 15 16 15 15 17 16 13 10 9 8 9 9 10 11 11 11 10 11 10 9 10 9 9 8 9 8 10 10 9
23 20 16 11 18 22 22 21 21 20 19 18 15 14 14 15 16 17 18 15 12 10 9 9 9 11 11 11 11 10 10 10 9 9 8 8 8 7 6 7 6 7 7
38 33 27 16 18 24 25 24 23 22 21 18 16 16 15 15 18 19 17 14 12 11 10 10 11 13 13 12 11 11 11 11 11 10 9 9 8 8 7 7 6 6 6
38 33 33 25 20 26 27 27 25 24 22 20 18 17 19 19 20 19 17 15 13 12 12 12 13 14 14 13 12 12 13 12 11 10 11 11 11 9 9 7 7 5 5
38 38 33 32 24 27 30 28 28 26 23 22 20 20 22 22 21 20 18 16 14 13 13 13 15 16 14 13 12 12 13 13 12 12 12 12 10 9 8 7 6 6 5
34 41 34 34 28 29 33 30 30 29 26 24 22 22 23 23 23 21 19 17 15 14 14 14 17 17 15 14 13 12 12 11 11 13 11 12 10 8 8 7 6 6 5
35 36 39 33 30 31 36 34 33 33 29 28 24 24 23 24 24 22 20 19 16 16 14 15 17 18 16 15 14 13 12 14 12 12 11 11 10 9 8 6 6 5 5
35 35 43 38 29 31 38 37 36 34 31 29 26 25 25 26 25 24 23 21 18 17 16 17 17 17 17 16 15 15 15 13 12 12 11 11 9 8 7 5 4 4 5
33 35 36 39 26 32 41 41 40 37 35 31 30 27 28 27 27 27 24 23 22 20 19 18 19 19 19 18 18 17 16 14 15 13 12 10 9 8 6 5 3 3 2
31 34 36 36 34 40 46 46 44 42 39 34 32 29 29 29 28 26 27 25 25 22 20 22 21 21 20 20 19 18 17 15 14 12 11 10 8 7 6 4 2 1 1
31 32 34 35 43 45 52 45 45 44 40 38 35 33 32 30 28 28 27 27 26 24 24 23 23 22 21 21 20 19 18 16 14 13 11 10 8 6 4 2 1 1 2
32 33 35 40 45 45 33 48 47 44 42 43 38 35 32 30 30 28 28 28 28 27 26 25 24 23 23 22 21 20 19 17 16 14 12 10 8 6 4 3 3 3 3
32 35 37 41 57 28 34 49 49 46 42 46 40 36 34 32 31 30 29 30 30 29 28 27 26 25 25 24 22 21 19 17 15 13 11 9 7 6 5 4 4 4 5
29 33 40 41 45 43 23 35 48 46 45 48 41 38 36 35 33 31 31 31 30 30 30 29 28 27 27 25 24 22 19 17 15 13 11 10 8 7 6 7 7 7 7
27 26 29 36 39 59 25 27 48 54 50 50 45 41 38 36 34 33 32 31 31 30 30 30 28 28 27 26 24 22 20 18 15 13 12 10 9 7 7 8 8 9 10
24 21 24 29 35 40 45 23 32 43 56 61 47 43 39 36 34 34 32 32 31 31 30 30 30 29 27 26 25 23 21 19 18 15 12 10 9 9 9 9 10 11 12
19 18 21 25 17 30 53 30 28 43 50 50 49 44 40 37 36 34 33 32 31 31 31 31 30 29 28 27 25 24 22 20 18 16 14 12 11 10 11 11 12 14 15
18 14 13 7 5 18 21 25 17 36 42 49 51 45 42 39 37 35 33 32 32 31 31 30 30 30 29 28 27 25 22 20 19 17 16 14 13 12 11 13 14 16 18
14 14 5 12 8 5 3 16 7 14 29 51 52 44 42 40 37 35 34 33 32 32 32 31 30 30 30 27 26 25 23 21 19 18 16 15 14 13 13 13 16 20 20
15 18 9 10 12 15 6 6 6 13 5 46 48 43 42 40 38 36 34 32 32 31 31 30 30 29 26 27 26 26 24 22 19 17 16 16 16 18 17 17 17 23 25
9 13 13 15 21 12 20 17 12 3 6 7 28 44 41 40 39 37 35 33 32 30 30 29 29 28 28 26 26 22 22 20 19 18 18 19 20 19 20 23 27 30 29
9 10 8 6 12 12 27 26 20 16 13 14 32 48 41 40 39 37 35 34 32 31 30 29 29 28 27 26 25 24 23 22 21 21 21 21 21 22 26 29 28 31 29
9 9 6 7 8 9 14 25 18 15 18 23 19 41 48 38 36 35 34 33 31 30 30 29 29 29 28 28 28 27 26 25 25 24 24 22 24 24 25 27 27 29 31
Wind_Direction
268 271 270 272 252 246 251 228 210 203 196 200 207 206 196 189 192 193 194 198 183 166 160 157 159 153 152 150 142 138 134 130 130 128 124 118 115 113 107 100 91 87 87
251 260 261 255 245 238 241 234 216 210 204 203 210 216 209 199 195 198 194 186 163 163 162 163 166 164 162 149 139 134 131 128 125 124 121 118 115 104 91 90 84 79 81
237 253 248 242 237 234 234 233 224 217 211 208 212 216 219 207 199 200 183 164 167 169 172 175 171 173 167 155 145 138 131 124 120 119 116 110 104 102 91 86 82 81 78
239 264 249 237 238 233 231 230 226 221 216 213 210 216 217 212 199 194 180 174 176 178 179 183 179 178 167 155 147 138 133 125 121 113 113 109 109 108 104 97 89 85 75
255 266 269 253 235 235 230 229 224 223 218 221 209 207 206 209 201 193 184 180 183 186 186 188 184 175 164 155 148 142 142 136 136 135 131 132 131 125 110 95 91 83 80
253 261 263 266 248 230 231 230 225 223 222 221 209 203 200 201 192 187 188 189 189 192 191 187 184 174 166 158 155 147 145 147 149 147 144 146 142 129 113 106 100 91 81
251 257 258 253 263 230 227 229 226 222 222 219 224 207 201 194 193 193 195 197 196 196 193 188 182 176 168 162 161 155 152 152 150 145 141 131 124 115 105 98 96 87 85
246 250 259 251 257 232 227 225 223 220 218 217 223 213 200 196 199 201 202 200 202 200 197 188 180 178 172 169 167 159 157 157 156 150 137 120 111 110 106 100 93 87 77
250 245 253 251 247 236 222 223 221 219 217 219 219 213 200 196 200 204 204 204 205 204 198 189 181 178 176 172 168 161 162 161 158 140 132 119 116 116 109 97 92 82 68
252 247 246 247 243 238 222 217 221 219 217 220 213 212 207 201 201 204 205 206 204 209 196 193 184 180 177 174 168 168 169 171 153 140 136 134 132 128 116 107 93 83 66
252 249 239 239 233 235 222 216 218 219 217 216 212 210 211 206 204 204 205 206 205 208 199 195 188 183 178 175 171 173 178 176 158 155 152 145 139 133 120 114 95 68 48
258 251 244 236 222 232 217 216 218 218 215 215 214 210 212 208 206 206 205 206 207 205 200 196 195 188 183 178 178 178 181 178 174 168 164 153 150 141 130 125 110 85 60
254 256 245 236 221 210 214 214 216 215 215 216 213 211 215 210 207 205 205 205 207 205 200 201 199 193 188 183 184 183 187 185 180 172 169 162 161 156 152 145 136 94 16
255 248 248 238 224 215 205 209 217 212 212 214 214 210 215 213 209 209 207 207 208 205 203 203 203 197 193 189 189 190 190 191 185 183 180 175 176 166 162 179 209 283 325
256 250 240 241 231 189 195 212 218 214 214 216 213 213 215 213 212 210 209 209 209 205 205 204 205 202 198 195 194 194 197 196 194 191 189 188 186 183 194 219 246 279 314
262 254 251 249 241 223 199 186 211 215 216 216 220 213 215 214 212 211 211 209 211 208 206 205 205 205 204 199 198 200 202 202 202 200 199 201 202 212 228 245 270 285 298
262 253 255 264 260 242 217 196 207 212 215 215 224 216 214 213 212 210 211 212 212 210 205 206 206 206 206 205 202 200 204 209 210 209 211 213 217 226 243 258 273 286 299
264 254 253 260 270 245 238 181 202 209 217 225 222 219 214 213 212 210 210 211 211 212 209 207 207 210 208 207 206 205 204 209 213 217 223 230 240 250 266 276 286 301 306
262 249 248 262 273 240 232 262 221 205 216 210 219 219 213 211 211 211 210 210 210 210 210 209 208 209 211 210 208 206 207 209 213 217 224 235 249 261 270 281 289 295 299
258 236 249 275 273 245 256 267 296 224 209 196 208 214 212 210 210 210 210 209 210 209 211 210 210 210 209 211 213 211 210 213 216 221 225 230 240 254 269 282 293 297 300
225 219 253 244 109 236 290 280 274 221 216 214 195 209 207 207 208 208 208 208 208 209 210 212 212 212 213 214 215 216 216 217 221 226 230 234 240 253 270 282 292 296 294
223 201 224 181 166 100 323 281 309 257 223 209 195 203 204 204 205 207 207 208 208 208 209 210 212 215 214 215 219 218 220 223 227 233 240 248 254 261 266 274 287 293 292
223 219 122 162 161 180 187 174 142 307 270 213 205 199 202 202 203 204 206 207 208 208 210 212 213 215 217 220 218 221 224 227 233 239 246 254 260 262 263 279 297 299 295
275 249 195 131 166 171 182 181 148 220 323 215 218 199 202 201 203 203 205 206 207 209 209 210 213 214 218 218 222 225 229 233 236 243 249 254 259 264 278 292 294 298 293
269 286 211 201 163 156 193 164 163 164 151 164 209 201 201 202 203 204 204 205 207 207 208 210 214 217 218 221 222 225 231 235 240 246 251 256 264 280 291 293 293 292 292
292 277 274 274 148 148 173 169 180 166 152 177 194 218 199 201 203 205 206 207 208 209 211 212 214 216 218 220 223 226 230 233 237 244 249 253 271 282 287 286 286 290 297